Time,TemperatureF,DewpointF,PressureIn,WindDirection,WindDirectionDegrees,WindSpeedMPH,WindSpeedGustMPH,Humidity,HourlyPrecipIn,Conditions,Clouds,dailyrainin,SoftwareType,DateUTC
2013-03-16 00:02:00,53.0,19.0,-100.00,WNW,284,8.0,19.0,26,-99.99,,,-99.99,,2013-03-16 07:02:00,
2013-03-16 00:22:00,54.0,15.0,-100.00,WSW,258,2.0,12.0,21,-99.99,,,-99.99,,2013-03-16 07:22:00,
2013-03-16 00:32:00,54.0,15.0,-100.00,WSW,258,2.0,12.0,21,-99.99,,,-99.99,,2013-03-16 07:32:00,
2013-03-16 00:42:00,54.0,15.0,-100.00,WSW,258,2.0,12.0,21,-99.99,,,-99.99,,2013-03-16 07:42:00,
2013-03-16 00:52:00,54.0,15.0,-100.00,WSW,258,2.0,12.0,21,-99.99,,,-99.99,,2013-03-16 07:52:00,
2013-03-16 01:02:00,50.0,18.0,-100.00,NNW,339,1.0,8.0,28,-99.99,,,-99.99,,2013-03-16 08:02:00,
2013-03-16 02:53:00,50.0,22.0,-100.00,NW,323,2.0,4.0,33,-99.99,,,-99.99,,2013-03-16 09:53:00,
2013-03-16 03:03:00,48.0,22.0,-100.00,NNW,332,2.0,11.0,35,-99.99,,,-99.99,,2013-03-16 10:03:00,
2013-03-16 03:12:00,47.0,21.0,-100.00,SW,220,3.0,15.0,35,-99.99,,,-99.99,,2013-03-16 10:12:00,
2013-03-16 03:22:00,49.0,23.0,-100.00,South,172,0.0,5.0,35,-99.99,,,-99.99,,2013-03-16 10:22:00,
2013-03-16 03:32:00,47.0,22.0,-100.00,SW,230,2.0,11.0,37,-99.99,,,-99.99,,2013-03-16 10:32:00,
2013-03-16 03:42:00,48.0,22.0,-100.00,WSW,241,3.0,11.0,35,-99.99,,,-99.99,,2013-03-16 10:42:00,
2013-03-16 03:52:00,48.0,22.0,-100.00,WSW,240,3.0,11.0,35,-99.99,,,-99.99,,2013-03-16 10:52:00,
2013-03-16 04:03:00,48.0,21.0,-100.00,SW,230,2.0,10.0,34,-99.99,,,-99.99,,2013-03-16 11:03:00,
2013-03-16 04:12:00,48.0,22.0,-100.00,SSW,213,2.0,9.0,36,-99.99,,,-99.99,,2013-03-16 11:12:00,
2013-03-16 04:22:00,48.0,22.0,-100.00,SW,217,1.0,11.0,35,-99.99,,,-99.99,,2013-03-16 11:22:00,
2013-03-16 04:32:00,47.0,21.0,-100.00,West,263,2.0,12.0,35,-99.99,,,-99.99,,2013-03-16 11:32:00,
2013-03-16 04:42:00,48.0,21.0,-100.00,WSW,251,2.0,10.0,34,-99.99,,,-99.99,,2013-03-16 11:42:00,
2013-03-16 04:52:00,48.0,22.0,-100.00,SW,229,2.0,9.0,35,-99.99,,,-99.99,,2013-03-16 11:52:00,
2013-03-16 05:02:00,48.0,21.0,-100.00,WSW,251,2.0,11.0,34,-99.99,,,-99.99,,2013-03-16 12:02:00,
2013-03-16 05:22:00,45.0,22.0,-100.00,WSW,246,0.0,7.0,39,-99.99,,,-99.99,,2013-03-16 12:22:00,
2013-03-16 05:32:00,42.0,22.0,-100.00,NNE,16,0.0,8.0,45,-99.99,,,-99.99,,2013-03-16 12:32:00,
2013-03-16 05:42:00,44.0,22.0,-100.00,NNW,343,2.0,10.0,41,-99.99,,,-99.99,,2013-03-16 12:42:00,
2013-03-16 05:52:00,45.0,20.0,-100.00,NW,326,2.0,13.0,37,-99.99,,,-99.99,,2013-03-16 12:52:00,
2013-03-16 06:02:00,45.0,21.0,-100.00,NW,318,2.0,11.0,38,-99.99,,,-99.99,,2013-03-16 13:02:00,
2013-03-16 06:32:00,45.0,22.0,-100.00,NW,315,2.0,12.0,39,-99.99,,,-99.99,,2013-03-16 13:32:00,
2013-03-16 08:12:00,44.0,23.0,-100.00,NW,316,0.0,7.0,43,-99.99,,,-99.99,,2013-03-16 15:12:00,
2013-03-16 08:22:00,44.0,24.0,-100.00,ENE,59,0.0,7.0,45,-99.99,,,-99.99,,2013-03-16 15:22:00,
2013-03-16 08:33:00,43.0,24.0,-100.00,ENE,58,1.0,7.0,47,-99.99,,,-99.99,,2013-03-16 15:33:00,
2013-03-16 08:42:00,43.0,24.0,-100.00,NE,54,1.0,7.0,46,-99.99,,,-99.99,,2013-03-16 15:42:00,
2013-03-16 08:52:00,43.0,24.0,-100.00,ENE,68,1.0,9.0,47,-99.99,,,-99.99,,2013-03-16 15:52:00,
2013-03-16 09:02:00,43.0,24.0,-100.00,East,97,1.0,8.0,47,-99.99,,,-99.99,,2013-03-16 16:02:00,
2013-03-16 09:12:00,43.0,25.0,-100.00,East,79,1.0,7.0,48,-99.99,,,-99.99,,2013-03-16 16:12:00,
2013-03-16 09:22:00,44.0,25.0,-100.00,ENE,64,1.0,5.0,47,-99.99,,,-99.99,,2013-03-16 16:22:00,
2013-03-16 09:33:00,44.0,25.0,-100.00,ENE,64,1.0,5.0,47,-99.99,,,-99.99,,2013-03-16 16:33:00,
2013-03-16 09:42:00,46.0,26.0,-100.00,ENE,76,1.0,10.0,46,-99.99,,,-99.99,,2013-03-16 16:42:00,
2013-03-16 09:53:00,46.0,26.0,-100.00,ENE,76,1.0,10.0,46,-99.99,,,-99.99,,2013-03-16 16:53:00,
2013-03-16 10:02:00,46.0,26.0,-100.00,ENE,76,1.0,10.0,46,-99.99,,,-99.99,,2013-03-16 17:02:00,
2013-03-16 11:22:00,52.0,25.0,-100.00,East,97,4.0,8.0,34,-99.99,,,-99.99,,2013-03-16 18:22:00,
2013-03-16 11:32:00,52.0,25.0,-100.00,East,97,4.0,8.0,34,-99.99,,,-99.99,,2013-03-16 18:32:00,
2013-03-16 11:42:00,54.0,25.0,-100.00,East,85,3.0,13.0,32,-99.99,,,-99.99,,2013-03-16 18:42:00,
2013-03-16 11:52:00,54.0,25.0,-100.00,East,85,3.0,13.0,32,-99.99,,,-99.99,,2013-03-16 18:52:00,
2013-03-16 12:02:00,54.0,25.0,-100.00,East,85,3.0,13.0,32,-99.99,,,-99.99,,2013-03-16 19:02:00,
2013-03-16 12:12:00,54.0,25.0,-100.00,East,85,3.0,13.0,32,-99.99,,,-99.99,,2013-03-16 19:12:00,
2013-03-16 16:42:00,58.0,20.0,-100.00,WNW,292,9.0,23.0,23,-99.99,,,-99.99,,2013-03-16 23:42:00,
2013-03-16 16:52:00,57.0,21.0,-100.00,West,281,11.0,24.0,24,-99.99,,,-99.99,,2013-03-16 23:52:00,
2013-03-16 17:01:00,57.0,20.0,-100.00,West,275,13.0,30.0,23,-99.99,,,-99.99,,2013-03-17 00:01:00,
2013-03-16 17:12:00,57.0,21.0,-100.00,West,280,12.0,26.0,24,-99.99,,,-99.99,,2013-03-17 00:12:00,
2013-03-16 17:22:00,56.0,19.0,-100.00,WNW,284,12.0,28.0,23,-99.99,,,-99.99,,2013-03-17 00:22:00,
2013-03-16 17:32:00,56.0,19.0,-100.00,WNW,284,12.0,28.0,23,-99.99,,,-99.99,,2013-03-17 00:32:00,
2013-03-16 17:42:00,56.0,17.0,-100.00,West,275,9.0,28.0,21,-99.99,,,-99.99,,2013-03-17 00:42:00,
2013-03-16 17:52:00,55.0,19.0,-100.00,West,278,12.0,26.0,24,-99.99,,,-99.99,,2013-03-17 00:52:00,
2013-03-16 18:02:00,55.0,20.0,-100.00,WNW,282,12.0,25.0,25,-99.99,,,-99.99,,2013-03-17 01:02:00,
2013-03-16 18:12:00,54.0,18.0,-100.00,West,280,13.0,27.0,24,-99.99,,,-99.99,,2013-03-17 01:12:00,
2013-03-16 18:22:00,54.0,18.0,-100.00,West,280,13.0,27.0,24,-99.99,,,-99.99,,2013-03-17 01:22:00,
2013-03-16 18:32:00,54.0,18.0,-100.00,West,278,14.0,28.0,24,-99.99,,,-99.99,,2013-03-17 01:32:00,
2013-03-16 18:42:00,54.0,19.0,-100.00,West,281,12.0,29.0,25,-99.99,,,-99.99,,2013-03-17 01:42:00,
2013-03-16 18:52:00,53.0,18.0,-100.00,West,278,14.0,28.0,25,-99.99,,,-99.99,,2013-03-17 01:52:00,
2013-03-16 19:02:00,53.0,18.0,-100.00,West,278,14.0,28.0,25,-99.99,,,-99.99,,2013-03-17 02:02:00,
2013-03-16 19:12:00,53.0,18.0,-100.00,West,274,12.0,24.0,25,-99.99,,,-99.99,,2013-03-17 02:12:00,
2013-03-16 19:22:00,53.0,18.0,-100.00,West,274,12.0,24.0,25,-99.99,,,-99.99,,2013-03-17 02:22:00,
2013-03-16 19:33:00,52.0,18.0,-100.00,WNW,285,10.0,22.0,26,-99.99,,,-99.99,,2013-03-17 02:33:00,
2013-03-16 19:42:00,52.0,18.0,-100.00,WNW,285,10.0,22.0,26,-99.99,,,-99.99,,2013-03-17 02:42:00,
2013-03-16 19:52:00,51.0,19.0,-100.00,WNW,301,2.0,16.0,28,-99.99,,,-99.99,,2013-03-17 02:52:00,
2013-03-16 20:02:00,51.0,19.0,-100.00,WNW,301,2.0,16.0,28,-99.99,,,-99.99,,2013-03-17 03:02:00,
2013-03-16 20:12:00,51.0,19.0,-100.00,WNW,301,2.0,16.0,28,-99.99,,,-99.99,,2013-03-17 03:12:00,
2013-03-16 20:22:00,51.0,19.0,-100.00,WNW,301,2.0,16.0,28,-99.99,,,-99.99,,2013-03-17 03:22:00,
2013-03-16 21:33:00,48.0,20.0,-100.00,West,277,8.0,18.0,32,-99.99,,,-99.99,,2013-03-17 04:33:00,
2013-03-16 21:43:00,48.0,20.0,-100.00,West,281,7.0,17.0,33,-99.99,,,-99.99,,2013-03-17 04:43:00,
2013-03-16 21:53:00,48.0,20.0,-100.00,West,278,7.0,17.0,33,-99.99,,,-99.99,,2013-03-17 04:53:00,
2013-03-16 22:02:00,48.0,20.0,-100.00,West,272,7.0,17.0,33,-99.99,,,-99.99,,2013-03-17 05:02:00,
2013-03-16 22:12:00,48.0,20.0,-100.00,West,275,7.0,17.0,32,-99.99,,,-99.99,,2013-03-17 05:12:00,
2013-03-16 22:22:00,47.0,19.0,-100.00,West,277,9.0,23.0,33,-99.99,,,-99.99,,2013-03-17 05:22:00,
2013-03-16 22:32:00,47.0,19.0,-100.00,West,277,9.0,23.0,33,-99.99,,,-99.99,,2013-03-17 05:32:00,
2013-03-16 22:42:00,47.0,19.0,-100.00,WNW,284,10.0,24.0,33,-99.99,,,-99.99,,2013-03-17 05:42:00,
2013-03-16 22:52:00,47.0,19.0,-100.00,WNW,284,10.0,24.0,33,-99.99,,,-99.99,,2013-03-17 05:52:00,
2013-03-16 23:02:00,48.0,20.0,-100.00,WNW,291,11.0,28.0,33,-99.99,,,-99.99,,2013-03-17 06:02:00,
2013-03-16 23:12:00,47.0,20.0,-100.00,West,281,13.0,30.0,34,-99.99,,,-99.99,,2013-03-17 06:12:00,
2013-03-16 23:22:00,47.0,20.0,-100.00,West,281,13.0,30.0,34,-99.99,,,-99.99,,2013-03-17 06:22:00,
2013-03-16 23:32:00,47.0,19.0,-100.00,WNW,282,11.0,33.0,32,-99.99,,,-99.99,,2013-03-17 06:32:00,
2013-03-16 23:41:00,46.0,19.0,-100.00,West,264,5.0,17.0,34,-99.99,,,-99.99,,2013-03-17 06:41:00,
2013-03-16 23:42:00,47.0,19.0,-100.00,WNW,282,11.0,33.0,32,-99.99,,,-99.99,,2013-03-17 06:42:00,
2013-03-16 23:52:00,47.0,20.0,-100.00,West,270,7.0,19.0,34,-99.99,,,-99.99,,2013-03-17 06:52:00,